Station NEAW1 - 9443090 - Neah Bay, WA Image indicating link to RSS feed of recent meteorological observations for station NEAW1


Conditions at NEAW1 as of
(5:18 am PDT)
1218 GMT on 04/16/2024:
     

Click on the graph icon in the table below to see a time series plot of the last five days of that observation.

5-day plot - Atmospheric Pressure Atmospheric Pressure (PRES):30.33 in
5-day plot - Water Temperature Water Temperature (WTMP): 49.5 °F
NOS Water Level Observation Network Water Level
Previous observations
TIME
(PDT)
5-day plot - Wind Direction
WDIR
 
5-day plot - Wind Speed
WSPD
kts
5-day plot - Wind Gust
GST
kts
5-day plot - Wave Height
WVHT
ft
5-day plot - Dominant Wave Period
DPD
sec
5-day plot - Average Wave Period
APD
sec
5-day plot - Mean Wave Direction
MWD
 
5-day plot - Atmospheric Pressure
PRES
in
5-day plot - Pressure Tendency
PTDY
in
5-day plot - Air Temperature
ATMP
°F
5-day plot - Water Temperature
WTMP
°F
5-day plot - Dew Point
DEWP
°F
5-day plot - Salinity
SAL
psu
5-day plot - Visibility
VIS
nmi
5-day plot - Tide (above MLLW)
TIDE
ft
2024-04-16 05:12 am-------30.33-- 49.5----
2024-04-16 05:06 am-------30.33-- 49.5----
2024-04-16 05:00 am-------30.33+0.01- 49.5----
2024-04-16 04:54 am-------30.33-- 49.5----
2024-04-16 04:48 am-------30.33-- 49.6----
2024-04-16 04:42 am-------30.33-- 49.6----
2024-04-16 04:36 am-------30.33-- 49.6----
2024-04-16 04:30 am-------30.33-- 49.6----
2024-04-16 04:24 am-------30.33-- 49.6----
2024-04-16 04:18 am-------30.34-- 49.6----
2024-04-16 04:12 am-------30.34-- 49.6----
2024-04-16 04:06 am-------30.34-- 49.6----
2024-04-16 04:00 am-------30.34+0.01- 49.6----
2024-04-16 03:54 am-------30.34-- 49.6----
2024-04-16 03:48 am-------30.34-- 49.6----
2024-04-16 03:42 am-------30.34-- 49.6----
2024-04-16 03:36 am-------30.33-- 49.6----
2024-04-16 03:30 am-------30.33-- 49.6----
2024-04-16 03:24 am-------30.33-- 49.6----
2024-04-16 03:18 am-------30.33-- 49.6----
2024-04-16 03:12 am-------30.33-- 49.6----
2024-04-16 03:06 am-------30.33-- 49.6----
2024-04-16 03:00 am-------30.33+0.00- 49.6----
2024-04-16 02:54 am-------30.33-- 49.6----
2024-04-16 02:48 am-------30.33-- 49.8----
2024-04-16 02:42 am-------30.33-- 49.8----
2024-04-16 02:36 am-------30.32-- 49.8----
2024-04-16 02:30 am-------30.32-- 49.8----
2024-04-16 02:24 am-------30.32-- 49.8----
2024-04-16 02:18 am-------30.32-- 49.8----
2024-04-16 02:12 am-------30.32-- 49.8----
2024-04-16 02:06 am-------30.32-- 49.8----
2024-04-16 02:00 am-------30.32-0.01- 49.8----
2024-04-16 01:54 am-------30.32-- 49.8----
2024-04-16 01:48 am-------30.32-- 49.8----
2024-04-16 01:42 am-------30.32-- 49.8----
2024-04-16 01:36 am-------30.32-- 49.8----
2024-04-16 01:30 am-------30.32-- 49.8----
2024-04-16 01:24 am-------30.33-- 49.8----
2024-04-16 01:18 am-------30.33-- 49.8----
2024-04-16 01:12 am-------30.33-- 49.8----
2024-04-16 01:06 am-------30.33-- 49.8----
2024-04-16 01:00 am-------30.33+0.00- 49.8----
2024-04-16 12:54 am-------30.33-- 49.8----
2024-04-16 12:48 am-------30.33-- 49.8----
2024-04-16 12:42 am-------30.33-- 49.8----
2024-04-16 12:36 am-------30.33-- 49.8----
2024-04-16 12:30 am-------30.33-- 49.8----
2024-04-16 12:24 am-------30.33-- 49.8----
2024-04-16 12:18 am-------30.33-- 49.8----
2024-04-16 12:12 am-------30.33-- 49.8----
2024-04-16 12:06 am-------30.33-- 49.8----
2024-04-16 12:00 am-------30.33+0.00- 50.0----
2024-04-15 11:54 pm-------30.33-- 50.0----
2024-04-15 11:48 pm-------30.33-- 50.0----
2024-04-15 11:42 pm-------30.34-- 50.0----
2024-04-15 11:36 pm-------30.33-- 50.0----
2024-04-15 11:30 pm-------30.34-- 50.0----
2024-04-15 11:24 pm-------30.33-- 50.0----
2024-04-15 11:18 pm-------30.34-- 50.0----
2024-04-15 11:12 pm-------30.33-- 50.0----
2024-04-15 11:06 pm-------30.33-- 50.0----
2024-04-15 11:00 pm-------30.33+0.02- 50.0----
2024-04-15 10:54 pm-------30.33-- 50.0----
2024-04-15 10:48 pm-------30.33-- 50.0----
2024-04-15 10:42 pm-------30.34-- 50.0----
2024-04-15 10:36 pm-------30.33-- 50.0----
2024-04-15 10:30 pm-------30.34-- 50.0----
2024-04-15 10:24 pm-------30.34-- 50.0----
2024-04-15 10:18 pm-------30.33-- 50.2----
2024-04-15 10:12 pm-------30.33-- 50.2----
2024-04-15 10:06 pm-------30.33-- 50.2----
2024-04-15 10:00 pm-------30.33+0.03- 50.2----
2024-04-15 09:54 pm-------30.34-- 50.2----
2024-04-15 09:48 pm-------30.34-- 50.2----
2024-04-15 09:42 pm-------30.34-- 50.2----
2024-04-15 09:36 pm-------30.33-- 50.2----
2024-04-15 09:30 pm-------30.34-- 50.2----
2024-04-15 09:24 pm-------30.34-- 50.2----
2024-04-15 09:18 pm-------30.34-- 50.4----
2024-04-15 09:12 pm-------30.34-- 50.4----
2024-04-15 09:06 pm-------30.33-- 50.4----
2024-04-15 09:00 pm-------30.33+0.01- 50.4----
2024-04-15 08:54 pm-------30.33-- 50.4----
2024-04-15 08:48 pm-------30.32-- 50.4----
2024-04-15 08:42 pm-------30.32-- 50.4----
2024-04-15 08:36 pm-------30.32-- 50.5----
2024-04-15 08:30 pm-------30.32-- 50.5----
2024-04-15 08:24 pm-------30.32-- 50.5----
2024-04-15 08:18 pm-------30.32-- 50.5----
2024-04-15 08:12 pm-------30.32-- 50.5----
2024-04-15 08:06 pm-------30.31-- 50.5----
2024-04-15 08:00 pm-------30.32+0.00- 50.5----
2024-04-15 07:54 pm-------30.31-- 50.5----
2024-04-15 07:48 pm-------30.31-- 50.5----
2024-04-15 07:42 pm-------30.31-- 50.5----
2024-04-15 07:36 pm-------30.31-- 50.5----
2024-04-15 07:30 pm-------30.31-- 50.5----
2024-04-15 07:24 pm-------30.31-- 50.5----
2024-04-15 07:18 pm-------30.31-- 50.5----
2024-04-15 07:12 pm-------30.31-- 50.5----
2024-04-15 07:06 pm-------30.31-- 50.5----
2024-04-15 07:00 pm-------30.31+0.00- 50.5----
2024-04-15 06:54 pm-------30.31-- 50.5----
2024-04-15 06:48 pm-------30.31-- 50.5----
2024-04-15 06:42 pm-------30.31-- 50.5----
2024-04-15 06:36 pm-------30.31-- 50.5----
2024-04-15 06:30 pm-------30.32-- 50.5----
2024-04-15 06:24 pm-------30.31-- 50.5----
2024-04-15 06:18 pm-------30.31-- 50.5----
2024-04-15 06:12 pm-------30.32-- 50.5----
2024-04-15 06:06 pm-------30.32-- 50.5----
2024-04-15 06:00 pm-------30.32+0.01- 50.5----
2024-04-15 05:54 pm-------30.32-- 50.5----
2024-04-15 05:48 pm-------30.32-- 50.5----
2024-04-15 05:42 pm-------30.32-- 50.5----
2024-04-15 05:36 pm-------30.32-- 50.5----
2024-04-15 05:30 pm-------30.32-- 50.5----
2024-04-15 05:24 pm-------30.31-- 50.5----
2024-04-15 05:18 pm-------30.32-- 50.5----
2024-04-15 05:12 pm-------30.32-- 50.5----
2024-04-15 05:06 pm-------30.31-- 50.5----
2024-04-15 05:00 pm-------30.31+0.01- 50.5----
2024-04-15 04:54 pm-------30.32-- 50.5----
2024-04-15 04:48 pm-------30.32-- 50.5----
2024-04-15 04:42 pm-------30.32-- 50.5----
2024-04-15 04:36 pm-------30.31-- 50.5----
2024-04-15 04:30 pm-------30.32-- 50.5----
2024-04-15 04:24 pm-------30.32-- 50.5----
2024-04-15 04:18 pm-------30.31-- 50.5----
2024-04-15 04:12 pm-------30.31-- 50.5----
2024-04-15 04:06 pm-------30.31-- 50.5----
2024-04-15 04:00 pm-------30.31+0.02- 50.5----
2024-04-15 03:54 pm-------30.31-- 50.5----
2024-04-15 03:48 pm-------30.31-- 50.5----
2024-04-15 03:42 pm-------30.31-- 50.5----
2024-04-15 03:36 pm-------30.31-- 50.5----
2024-04-15 03:30 pm-------30.31-- 50.5----
2024-04-15 03:24 pm-------30.30-- 50.5----
2024-04-15 03:18 pm-------30.31-- 50.5----
2024-04-15 03:12 pm-------30.30-- 50.5----
2024-04-15 03:06 pm-------30.31-- 50.5----
2024-04-15 03:00 pm-------30.31+0.03- 50.5----
2024-04-15 02:54 pm-------30.31-- 50.5----
2024-04-15 02:48 pm-------30.31-- 50.5----
2024-04-15 02:42 pm-------30.31-- 50.5----
2024-04-15 02:36 pm-------30.30-- 50.5----
2024-04-15 02:30 pm-------30.30-- 50.5----
2024-04-15 02:24 pm-------30.30-- 50.5----
2024-04-15 02:18 pm---------- 50.5----
2024-04-15 02:12 pm---------- 50.4----
2024-04-15 02:06 pm---------- 50.4----
2024-04-15 02:00 pm-------30.30+0.03- 50.4----
2024-04-15 01:54 pm-------30.30-- 50.4----
2024-04-15 01:48 pm-------30.31-- 50.4----
2024-04-15 01:42 pm-------30.30-- 50.4----
2024-04-15 01:36 pm-------30.30-- 50.4----
2024-04-15 01:30 pm-------30.29-- 50.2----
2024-04-15 01:24 pm-------30.29-- 50.2----
2024-04-15 01:18 pm-------30.30-- 50.2----
2024-04-15 01:12 pm-------30.29-- 50.2----
2024-04-15 01:06 pm-------30.29-- 50.2----
2024-04-15 01:00 pm-------30.29+0.03- 50.2----
2024-04-15 12:54 pm-------30.29-- 50.0----
2024-04-15 12:48 pm-------30.29-- 50.0----
2024-04-15 12:42 pm-------30.29-- 50.0----
2024-04-15 12:36 pm-------30.29-- 50.0----
2024-04-15 12:30 pm-------30.28-- 50.0----
2024-04-15 12:24 pm-------30.29-- 50.0----
2024-04-15 12:18 pm-------30.29-- 50.0----
2024-04-15 12:12 pm-------30.28-- 50.0----
2024-04-15 12:06 pm-------30.28-- 50.0----
2024-04-15 12:00 pm-------30.28+0.04- 50.0----
2024-04-15 11:54 am-------30.28-- 50.0----
2024-04-15 11:48 am-------30.27-- 49.8----
2024-04-15 11:42 am-------30.28-- 49.8----
2024-04-15 11:36 am-------30.28-- 49.8----
2024-04-15 11:30 am-------30.28-- 49.8----
2024-04-15 11:24 am-------30.28-- 49.8----
2024-04-15 11:18 am-------30.27-- 49.8----
2024-04-15 11:12 am-------30.28-- 49.8----
2024-04-15 11:06 am-------30.27-- 49.8----
2024-04-15 11:00 am-------30.27+0.04- 49.8----
2024-04-15 10:54 am-------30.27-- 49.8----
2024-04-15 10:48 am-------30.27-- 49.8----
2024-04-15 10:42 am-------30.27-- 49.8----
2024-04-15 10:36 am-------30.26-- 50.0----
2024-04-15 10:30 am-------30.26-- 50.0----
2024-04-15 10:24 am-------30.25-- 50.0----
2024-04-15 10:18 am-------30.25-- 50.0----
2024-04-15 10:12 am-------30.26-- 50.0----
2024-04-15 10:06 am-------30.25-- 50.0----
2024-04-15 10:00 am-------30.26+0.05- 50.0----
2024-04-15 09:54 am-------30.25-- 50.0----
2024-04-15 09:48 am-------30.25-- 49.8----
2024-04-15 09:42 am-------30.26-- 49.8----
2024-04-15 09:36 am-------30.25-- 50.0----
2024-04-15 09:30 am-------30.25-- 50.0----
2024-04-15 09:24 am-------30.25-- 50.0----
2024-04-15 09:18 am-------30.25-- 50.0----
2024-04-15 09:12 am-------30.25-- 50.0----
2024-04-15 09:06 am-------30.24-- 50.0----
2024-04-15 09:00 am-------30.24+0.05- 50.0----
2024-04-15 08:54 am-------30.24-- 50.0----
2024-04-15 08:48 am-------30.24-- 50.0----
2024-04-15 08:42 am-------30.24-- 50.0----
2024-04-15 08:36 am-------30.24-- 50.0----
2024-04-15 08:30 am-------30.24-- 50.0----
2024-04-15 08:24 am-------30.23-- 50.0----
2024-04-15 08:18 am-------30.23-- 50.0----
2024-04-15 08:12 am-------30.23-- 50.0----
2024-04-15 08:06 am-------30.23-- 50.0----
2024-04-15 08:00 am-------30.23+0.04- 50.0----
2024-04-15 07:54 am-------30.23-- 50.0----
2024-04-15 07:48 am-------30.23-- 50.0----
2024-04-15 07:42 am-------30.22-- 50.0----
2024-04-15 07:36 am-------30.22-- 50.0----
2024-04-15 07:30 am-------30.22-- 50.0----
2024-04-15 07:24 am-------30.22-- 50.0----
2024-04-15 07:18 am-------30.22-- 50.0----
2024-04-15 07:12 am-------30.21-- 50.0----
2024-04-15 07:06 am-------30.21-- 50.0----
2024-04-15 07:00 am-------30.21+0.03- 50.0----
2024-04-15 06:54 am-------30.21-- 50.2----
2024-04-15 06:48 am-------30.20-- 50.2----
2024-04-15 06:42 am-------30.20-- 50.2----
2024-04-15 06:36 am-------30.20-- 50.2----
2024-04-15 06:30 am-------30.20-- 50.2----
2024-04-15 06:24 am-------30.19-- 50.2----
2024-04-15 06:18 am-------30.20-- 50.2----
2024-04-15 06:12 am-------30.19-- 50.2----
2024-04-15 06:06 am-------30.19-- 50.4----
2024-04-15 06:00 am-------30.19+0.03- 50.4----
2024-04-15 05:54 am-------30.19-- 50.4----
2024-04-15 05:48 am-------30.19-- 50.4----
2024-04-15 05:42 am-------30.19-- 50.4----
2024-04-15 05:36 am-------30.19-- 50.4----
2024-04-15 05:30 am-------30.19-- 50.4----
2024-04-15 05:24 am-------30.19-- 50.4----
2024-04-15 05:18 am-------30.19-- 50.4----
2024-04-15 05:12 am-------30.19-- 50.4----
2024-04-15 05:06 am-------30.19-- 50.4----
2024-04-15 05:00 am-------30.19+0.04- 50.4----
2024-04-15 04:54 am-------30.19-- 50.4----